Regional Weather Roundup
Issued by NWS Wakefield, VA

Home | Current Version | Previous Version | Text Only | Print | Product List | Glossary Off
Versions: 1 2 3 4 5 6 7 8 9 10 11 12 13 14 15 16 17 18 19 20 21 22 23 24 25 26 27 28 29 30 31 32 33 34 35 36 37 38 39 40 41 42 43 44 45 46 47 48 49 50

193
ASUS41 KAKQ 311415
RWRAKQ

REGIONAL WEATHER ROUNDUP
NATIONAL WEATHER SERVICE WAKEFIELD VA
1000 AM EDT WED AUG 31 2016

Note: "fair" indicates few or no clouds below 12,000 feet with no
significant weather and/or obstructions to visibility. * = Denotes
station may not report precipitation (e.g., rain,snow,etc.),
thunder or fog.

VAZ042-051-052>054-056-311500-
NORTHERN VIRGINIA

CITY           SKY/WX    TMP DP  RH WIND       PRES   REMARKS
WASH NATIONAL  MOSUNNY   81  72  74 S7        30.00F
DULLES         PTSUNNY   79  68  69 S7        30.01S
FORT BELVOIR   MOSUNNY   83  71  68 VRB3      30.00S
QUANTICO       NOT AVBL
FREDERICKSBRG* MOSUNNY   80  70  70 S5        30.00F
STAFFORD*      PTSUNNY   78  70  77 CALM      30.05S
WARRENTON      MOSUNNY   83  66  57 SW5       30.01S
CULPEPER*      CLOUDY    81  72  74 SW3       30.02S
MANASSAS*      SUNNY     79  72  78 CALM      30.01S
LEESBURG*      MOSUNNY   79  72  78 S8        30.02S
WINCHESTER     SUNNY     79  70  73 SE5       30.01S
FRONT ROYAL*   FAIR      77  70  78 CALM      30.00F
LURAY*         FAIR      79  70  73 S5        30.02S
$$

VAZ048-049-060>072-079>083-311500-
CENTRAL AND SOUTH CENTRAL VIRGINIA

CITY           SKY/WX    TMP DP  RH WIND       PRES   REMARKS
RICHMOND       CLOUDY    80  68  66 W3        30.02S
CHESTERFIELD*  CLOUDY    81  61  50 SW5       30.03F
PETERSBURG*    PTSUNNY   81  72  75 SW5       30.03S
HANOVER        PTSUNNY   78  69  73 CALM      30.04S
TAPPAHANNOCK*  SUNNY     82  71  69 CALM      30.02S
QUINTON*       FAIR      81  72  75 CALM      30.01S
CHARLOTTSVILLE SUNNY     80  71  74 S7        30.02S
GORDONSVILLE*  FAIR      81  72  74 S5        30.01F
ORANGE*          N/A     82  70  65 SE6       30.03S
LOUISA*        MOSUNNY   84  75  74 S5        30.01F
BUMPASS*       CLOUDY    76  74  93 CALM      30.02F
FARMVILLE*     SUNNY     81  74  79 S3        30.01S
CREWE*         FAIR      79  73  81 CALM      30.02F
FORT PICKETT*  FAIR      80  75  85 S5        30.03S
CHASE CITY*    FAIR      82  75  78 CALM      30.02F
CLARKSVILLE*   FAIR      79  73  83 CALM      30.02S
SOUTH HILL*    MOSUNNY   78  74  86 CALM      30.08F
LAWRENCEVILLE* FAIR      76  73  88 CALM      30.03S
EMPORIA*         N/A     77  73  88 CALM      30.03S
$$

VAZ088>098-311500-
SOUTHEAST VIRGINIA

CITY           SKY/WX    TMP DP  RH WIND       PRES   REMARKS
NORFOLK        MOSUNNY   82  73  74 NE6       30.00R
VIRGINIA BEACH MOSUNNY   83  71  67 VRB3      29.99R
NORFOLK NAVAL  MOSUNNY   84  73  69 N7        30.01S
WEST POINT*    MOSUNNY   77  76  96 SW5       30.03S
SALUDA*        FAIR      80  76  87 NW3       30.00S
NEWPORT NEWS   SUNNY     84  74  71 VRB3      30.01S
LANGLEY AFB    MOSUNNY   83  74  74 N7        30.00S
FORT EUSTIS    SUNNY     84  75  72 NW3       29.98S
WILLIAMSBURG*  SUNNY     82  73  74 CALM      30.02R
HR EXEC AP*    FAIR      82  75  78 N3        30.02S
FRANKLIN*      MOSUNNY   78  73  83 CALM      30.02R
US460-WAKEFLD  MOSUNNY   80  73  79 CALM      30.01S
$$

VAZ020-022-025-037-045-311500-
WEST CENTRAL AND SOUTHWEST VIRGINIA

CITY           SKY/WX    TMP DP  RH WIND       PRES   REMARKS
STAUNTON*      SUNNY     73  71  92 CALM      30.06S
WAYNESBORO*    FAIR      75  70  85 CALM      30.06S
HOT SPRINGS VA MOSUNNY   71  70  96 W7        30.17R
LYNCHBURG      SUNNY     80  69  69 VRB3      30.04F
DANVILLE       SUNNY     79  70  74 CALM      30.03S
SOUTH BOSTON*  FAIR      83  71  68 SW3       30.02F
MARTINSVILLE   SUNNY     78  70  77 CALM      30.07R
ROANOKE        SUNNY     78  70  76 NW6       30.07S
BLACKSBURG     PTSUNNY   72  70  93 CALM      30.14R
DUBLIN*        CLOUDY    70  70 100 CALM      30.12S FOG
MARION*        SUNNY     77  67  71 CALM      30.15S
HILLSVILLE*    SUNNY     72  68  89 S3        30.12S
RICHLANDS*     FAIR      72  69  89 CALM      30.13R
WISE*          SUNNY     77  59  53 SW8       30.13S
ABINGDON*      SUNNY     78  68  71 CALM      30.10S
$$

MDZ021>025-VAZ099-100-311500-
SOUTHERN MARYLAND AND THE DELMARVA PENINSULA

CITY           SKY/WX    TMP DP  RH WIND       PRES   REMARKS
PATUXENT RIVER MOSUNNY   81  72  74 SW6       30.00S
BAY BRIDGE APT PTSUNNY   84  75  74 MISG      30.00S
LEONARDTOWN    MOSUNNY   81  72  74 SW5       30.02S
DOVER          DRIZZLE   75 N/A N/A VRB1      29.99S
GEORGETOWN     SUNNY     80  71  74 VRB5      30.01F
EASTON         PTSUNNY   81  77  89 S5        30.04F
CAMBRIDGE      PTSUNNY   77  72  83 CALM      30.00S
SALISBURY      SUNNY     80  72  76 CALM      30.00F
OCEAN CITY     MOSUNNY   81  73  76 SE5       30.01S
WALLOPS ISLAND MOSUNNY   84  73  69 N5        30.01S
ACCOMACK*      SUNNY     83  70  66 N3        30.00F
$$

NCZ012>017-030>032-311500-
NORTH CENTRAL AND EASTERN NORTH CAROLINA

CITY           SKY/WX    TMP DP  RH WIND       PRES   REMARKS
ROANOKE RAPIDS PTSUNNY   73  73 100 CALM      30.03R
RALEIGH        MOSUNNY   83  73  72 CALM      30.03R
ELIZABETH CITY SUNNY     82  75  79 NE3       30.00S
AHOSKIE*       CLOUDY    74  73  99 CALM      30.01F
EDENTON*       CLOUDY   N/A N/A N/A N5        30.01S
CURRITUCK*       N/A     83  73  72 NE8       30.00S
KILL DEVIL HLS MOSUNNY   85  79  84 N7        29.98S HX  97
MANTEO         PTSUNNY   82  77  84 NE8       29.99S
CAPE HATTERAS  MOSUNNY   85  76  74 N8        29.98R
TARBORO*       PTSUNNY   75  75  98 CALM      30.03R
GOLDSBORO      PTSUNNY   79  79 100 VRB2      30.01R
WASHINGTON     PTSUNNY   75  74  96 CALM      30.02R
GREENVILLE     MOSUNNY   77  77 100 N5        30.03R
NEW BERN       CLOUDY    78  73  84 N5        30.02S
WILMINGTON     CLOUDY    78  75  90 N3        30.01R
$$

VAZ048-311500-
ELSEWHERE

CITY           SKY/WX    TMP DP  RH WIND       PRES   REMARKS
HARRISBURG PA  CLOUDY    79  67  66 CALM      29.99F
BALTIMORE      MOSUNNY   82  67  60 CALM      30.00S
ANNAPOLIS      SUNNY     81  74  79 E6        30.00S
ANDREWS AFB    SUNNY     83  70  64 SW10      30.00S
PHILADELPHIA   MOSUNNY   79  70  74 S5        30.00F
HENDERSON NC   MOSUNNY   78  71  80 CALM      30.03S
GREENSBORO     MOSUNNY   83  67  58 SW3       30.04R
ROCKY MOUNT    MOSUNNY   79  75  87 VRB3      30.02R
$$

VAZ100-311500-
MARINE

STATION/POSITION TIME  TEMP    WIND        PRES    WAVE   SWELL
                       AIR SEA DIR/SP/G            HT/PER HT/PER
                 (UTC) (F)     (DEG/KT/KT) (MB)    (FT/S) (FT/S)
BRANDYWINE LGT   1300   75     250/  2/  3   N/A
CAPE MAY NJ      1300   79 78  250/  3/  3 1015.8F
LEWES DE         1300   76 76   10/  2/  3 1016.0F
OCEAN-CITY-INLET 1300   78 78   10/  3/  4 1016.4F
WACHAPREAGUE VA  1300   80 82   30/  5/  8 1016.1R
THOMAS POINT MD  1400   77 83  210/  3/  4 1017.3F
GOOSES REEF MD   1400   79 83   CALM  /  2 1016.6F   0
COVE POINT MD    1300   79     290/  4/  6 1016.6F
SOLOMONS ISLAND  1300   79 84  280/  4/  5   N/A
BISHOPS HEAD MD  1300   79 82   40/  5/  7 1016.4F
PINEY POINT MD   1300          290/  3/  3   N/A
POTOMAC MD       1400   80 83  320/  4/  4 1015.1F   0
CAMBRIDGE MD     1300   75 84   90/  3/  4 1015.3F
LEWISETTA VA     1300   78 83  260/  2/  2 1015.9F
RAPPAHANNOCK LGT 1300           50/  2/  3 1016.7S
STINGRAY PT      1400   81 84  330/  2/  4 1016.5S   0
YORK RVR RNG VA  1300   80      20/  5/  6 1015.4F
YORKTOWN VA      1300   78 83  310/  5/  5 1015.6F
JAMESTOWN VA     1400   78 85  280/  6/  8   N/A     0
DOMINION TERM VA 1300   80     350/  5/  7 1015.8F
KIPTOPEKE VA     1300      81  340/  5/  7   N/A
CHES BAY BRIDGE  1300   79 80  360/  6/  8 1015.5F
CAPE HENRY VA    1300   79      20/  7/  7   N/A
WILLOUBY STN VA  1300   79     360/  4/  5   N/A
CAPE HENRY BUOY  1312      80                N/A     3/10   2/11
1ST LANDING BUOY 1400   79 80   20/  4/  6 1015.5R   2/ 4
CAPE CHARLES BUO 1356      79                N/A     3/13   2/13
OFFSHORE WE BUOY 1351      81                N/A     4/11   2/11
64NM E OF VA BCH 1350   80 80   30/ 12/ 14 1014.7R   4/10   3/10
DUCK PIER NC     1300   79 80   10/  8/  9 1014.8R
44056 DUCK FRF   1311      79                N/A     3/13   2/13
OREGON INLET NC  1300   81 81  360/  8/ 10 1015.1R
HATTERAS NC      1300   80 82  360/ 12/ 14 1014.4F
DIAMOND SHLS NC  1350   81 85  360/ 12/ 14 1014.7R   4/11   3/11
CAPE LOOKOUT NC  1400   81     340/  6/  8 1015.3F
$$




USA.gov is the U.S. government's official web portal to all federal, state and local government web resources and services.